Weather History for Mammoth, CA

Change the Weather History Date:

Friday, October 18, 2013

  Actual Average Record
Temperature  
Mean Temperature 46 °F -  
Max Temperature 68 °F 56 °F 73 °F (2012)
Min Temperature 24 °F 36 °F 19 °F (1998)
Degree Days  
Heating Degree Days 19    
Moisture  
Dew Point 11 °F    
Average Humidity 33    
Maximum Humidity 64    
Minimum Humidity 7    
Precipitation  
Precipitation 0.00 in - - ()
Sea Level Pressure  
Sea Level Pressure 30.29 in    
Wind  
Wind Speed 5 mph (NE)    
Max Wind Speed 10 mph    
Max Gust Speed -    
Visibility 10 miles    
Events      
Averages and records for this station are not official NWS values.
T = Trace of Precipitation, MM = Missing Value Source: NWS Daily Summary

Daily Weather History Graph

Daily Weather History Graph

Search for Another Location

Airport:

Trip Planner

Search our weather history database for the weather conditions in past years. The results will help you decide how hot, cold, wet, or windy it might be!

Date:

Astronomy

Oct. 18, 2013 Rise Set
Actual Time 7:06 AM PDT 6:13 PM PDT
Civil Twilight 6:40 AM PDT 6:39 PM PDT
Nautical Twilight 6:09 AM PDT 7:10 PM PDT
Astronomical Twilight 5:39 AM PDT 7:40 PM PDT
Moon 6:06 PM PDT (10/18) 6:47 AM PDT (10/18)
Length of Visible Light 11h 59m
Length of Day
11h 06m
Full, 100% of the Moon is Illuminated
Oct 18
Full
Oct 18
Full
Oct 26
Last Quarter
Nov 3
New
Nov 9
First Quarter

Hourly Weather History & Observations

Time (PDT) Temp. Windchill Dew Point Humidity Pressure Visibility Wind Dir Wind Speed Gust Speed Precip Events Conditions
12:15 AM 35.6 °F 29.9 °F 14.0 °F 41% 30.29 in 10.0 mi WNW 6.9 mph - N/A   Clear
12:35 AM 35.6 °F 28.6 °F 14.0 °F 41% 30.29 in 10.0 mi West 9.2 mph - N/A   Clear
12:55 AM 35.6 °F 31.7 °F 14.0 °F 41% 30.28 in 10.0 mi WNW 4.6 mph - N/A   Clear
1:15 AM 32.0 °F 26.4 °F 15.8 °F 51% 30.29 in 10.0 mi West 5.8 mph - N/A   Clear
1:35 AM 33.8 °F 25.8 °F 15.8 °F 48% 30.29 in 10.0 mi WNW 10.4 mph - N/A   Clear
1:55 AM 32.0 °F 27.5 °F 15.8 °F 51% 30.29 in 10.0 mi West 4.6 mph - N/A   Clear
2:15 AM 32.0 °F 28.7 °F 15.8 °F 51% 30.29 in 10.0 mi North 3.5 mph - N/A   Clear
2:35 AM 32.0 °F - 15.8 °F 51% 30.30 in 10.0 mi Calm Calm - N/A   Clear
2:55 AM 30.2 °F - 15.8 °F 55% 30.30 in 10.0 mi Calm Calm - N/A   Clear
3:15 AM 32.0 °F 28.7 °F 15.8 °F 51% 30.30 in 10.0 mi North 3.5 mph - N/A   Clear
3:35 AM 32.0 °F 24.8 °F 15.8 °F 51% 30.29 in 10.0 mi WNW 8.1 mph - N/A   Clear
3:55 AM 30.2 °F 22.6 °F 15.8 °F 55% 30.29 in 10.0 mi West 8.1 mph - N/A   Clear
4:15 AM 32.0 °F 27.5 °F 14.0 °F 48% 30.29 in 10.0 mi WNW 4.6 mph - N/A   Clear
4:35 AM 30.2 °F 26.7 °F 15.8 °F 55% 30.29 in 10.0 mi North 3.5 mph - N/A   Clear
4:55 AM 30.2 °F - 15.8 °F 55% 30.29 in 10.0 mi Calm Calm - N/A   Clear
5:15 AM 30.2 °F 26.7 °F 15.8 °F 55% 30.29 in 10.0 mi NW 3.5 mph - N/A   Clear
5:35 AM 28.4 °F 23.3 °F 14.0 °F 55% 30.30 in 10.0 mi North 4.6 mph - N/A   Clear
5:55 AM 28.4 °F - 14.0 °F 55% 30.30 in 10.0 mi Calm Calm - N/A   Clear
6:15 AM 28.4 °F 22.2 °F 14.0 °F 55% 30.29 in 10.0 mi NNW 5.8 mph - N/A   Clear
6:35 AM 26.6 °F 22.6 °F 14.0 °F 59% 30.29 in 10.0 mi North 3.5 mph - N/A   Clear
6:55 AM 24.8 °F - 14.0 °F 64% 30.30 in 10.0 mi Calm Calm - N/A   Clear
7:15 AM 24.8 °F 20.5 °F 12.2 °F 59% 30.30 in 10.0 mi NNW 3.5 mph - N/A   Clear
7:35 AM 26.6 °F - 12.2 °F 55% 30.31 in 10.0 mi Calm Calm - N/A   Clear
7:55 AM 28.4 °F - 12.2 °F 51% 30.31 in 10.0 mi Calm Calm - N/A   Clear
8:15 AM 30.2 °F - 12.2 °F 47% 30.32 in 10.0 mi Calm Calm - N/A   Clear
8:35 AM 33.8 °F - 14.0 °F 44% 30.33 in 10.0 mi Calm Calm - N/A   Clear
8:55 AM 39.2 °F - 14.0 °F 36% 30.33 in 10.0 mi Calm Calm - N/A   Clear
9:15 AM 41.0 °F - 14.0 °F 33% 30.33 in 10.0 mi Calm Calm - N/A   Clear
9:35 AM 44.6 °F 41.4 °F 15.8 °F 31% 30.33 in 10.0 mi SE 5.8 mph - N/A   Clear
9:55 AM 46.4 °F 42.9 °F 15.8 °F 29% 30.33 in 10.0 mi SSE 6.9 mph - N/A   Clear
10:15 AM 50.0 °F - 17.6 °F 28% 30.33 in 10.0 mi SE 6.9 mph - N/A   Clear
10:35 AM 50.0 °F - 15.8 °F 26% 30.32 in 10.0 mi SE 5.8 mph - N/A   Clear
10:55 AM 55.4 °F - 15.8 °F 21% 30.31 in 10.0 mi SE 4.6 mph - N/A   Clear
11:15 AM 57.2 °F - 15.8 °F 20% 30.31 in 10.0 mi ESE 5.8 mph - N/A   Clear
11:35 AM 59.0 °F - 12.2 °F 16% 30.32 in 10.0 mi SE 5.8 mph - N/A   Clear
11:55 AM 60.8 °F - 12.2 °F 15% 30.31 in 10.0 mi SE 4.6 mph - N/A   Clear
12:15 PM 62.6 °F - 8.6 °F 12% 30.30 in 10.0 mi South 3.5 mph - N/A   Clear
12:35 PM 62.6 °F - 8.6 °F 12% 30.30 in 10.0 mi Calm Calm - N/A   Clear
12:55 PM 64.4 °F - 6.8 °F 10% 30.29 in 10.0 mi SSE 3.5 mph - N/A   Clear
1:15 PM 66.2 °F - 6.8 °F 10% 30.28 in 10.0 mi East 4.6 mph - N/A   Clear
1:35 PM 64.4 °F - 3.2 °F 9% 30.27 in 10.0 mi SSE 4.6 mph - N/A   Clear
1:55 PM 66.2 °F - 1.4 °F 8% 30.26 in 10.0 mi ESE 8.1 mph - N/A   Clear
2:15 PM 66.2 °F - 3.2 °F 8% 30.26 in 10.0 mi ESE 3.5 mph - N/A   Clear
2:35 PM 66.2 °F - -0.4 °F 7% 30.25 in 10.0 mi ESE 5.8 mph - N/A   Clear
2:55 PM 66.2 °F - 1.4 °F 8% 30.25 in 10.0 mi East 8.1 mph - N/A   Clear
3:15 PM 68.0 °F - 5.0 °F 8% 30.25 in 10.0 mi ESE 6.9 mph - N/A   Clear
3:35 PM 68.0 °F - 5.0 °F 8% 30.25 in 10.0 mi ESE 6.9 mph - N/A   Clear
3:55 PM 68.0 °F - 6.8 °F 9% 30.25 in 10.0 mi East 9.2 mph - N/A   Clear
4:15 PM 66.2 °F - 6.8 °F 10% 30.25 in 10.0 mi SE 9.2 mph - N/A   Clear
4:35 PM 66.2 °F - 8.6 °F 11% 30.25 in 10.0 mi ESE 6.9 mph - N/A   Clear
4:55 PM 64.4 °F - 8.6 °F 11% 30.25 in 10.0 mi ESE 8.1 mph - N/A   Clear
5:15 PM 62.6 °F - 8.6 °F 12% 30.25 in 10.0 mi ESE 9.2 mph - N/A   Clear
5:35 PM 60.8 °F - 8.6 °F 13% 30.25 in 10.0 mi ESE 6.9 mph - N/A   Clear
5:55 PM 57.2 °F - 6.8 °F 13% 30.26 in 10.0 mi SE 3.5 mph - N/A   Clear
6:15 PM 53.6 °F - 6.8 °F 15% 30.27 in 10.0 mi South 4.6 mph - N/A   Clear
6:35 PM 50.0 °F - 6.8 °F 17% 30.28 in 10.0 mi West 3.5 mph - N/A   Clear
6:55 PM 46.4 °F - 3.2 °F 17% 30.28 in 10.0 mi Calm Calm - N/A   Clear
7:15 PM 46.4 °F 42.4 °F 6.8 °F 20% 30.29 in 10.0 mi WNW 8.1 mph - N/A   Clear
7:35 PM 46.4 °F 45.2 °F 12.2 °F 25% 30.29 in 10.0 mi NW 3.5 mph - N/A   Clear
7:55 PM 44.6 °F - 12.2 °F 27% 30.30 in 10.0 mi Calm Calm - N/A   Clear
8:15 PM 42.8 °F 41.1 °F 14.0 °F 31% 30.30 in 10.0 mi North 3.5 mph - N/A   Clear
8:35 PM 39.2 °F 35.0 °F 12.2 °F 33% 30.31 in 10.0 mi NNW 5.8 mph - N/A   Clear
8:55 PM 39.2 °F 37.0 °F 12.2 °F 33% 30.31 in 10.0 mi NW 3.5 mph - N/A   Clear
9:15 PM 39.2 °F 35.0 °F 12.2 °F 33% 30.31 in 10.0 mi NNW 5.8 mph - N/A   Clear
9:35 PM 37.4 °F 34.9 °F 12.2 °F 36% 30.31 in 10.0 mi NNW 3.5 mph - N/A   Clear
9:55 PM 35.6 °F 31.7 °F 12.2 °F 38% 30.32 in 10.0 mi NNW 4.6 mph - N/A   Clear
10:15 PM 33.8 °F - 12.2 °F 41% 30.32 in 10.0 mi Calm Calm - N/A   Clear
10:35 PM 33.8 °F - 12.2 °F 41% 30.33 in 10.0 mi Calm Calm - N/A   Clear
10:55 PM 35.6 °F - 12.2 °F 38% 30.32 in 10.0 mi Calm Calm - N/A   Clear
11:15 PM 35.6 °F 32.8 °F 12.2 °F 38% 30.32 in 10.0 mi NNW 3.5 mph - N/A   Clear
11:35 PM 33.8 °F 30.8 °F 12.2 °F 41% 30.32 in 10.0 mi North 3.5 mph - N/A   Clear
11:55 PM 33.8 °F - 12.2 °F 41% 30.32 in 10.0 mi Calm Calm - N/A   Clear